Time,TemperatureF,DewpointF,PressureIn,WindDirection,WindDirectionDegrees,WindSpeedMPH,WindSpeedGustMPH,Humidity,HourlyPrecipIn,Conditions,Clouds,dailyrainin,SoftwareType,DateUTC
2013-07-10 00:11:00,65.1,63.0,30.02,SW,234,9.0,-999.0,91,-99.99,,,0.00,weatherlink.com 1.10,2013-07-10 04:11:00,
2013-07-10 00:26:00,64.9,63.0,30.02,WSW,246,5.0,-999.0,92,-99.99,,,0.00,weatherlink.com 1.10,2013-07-10 04:26:00,
2013-07-10 00:41:00,64.7,62.0,30.02,SW,224,3.0,-999.0,92,-99.99,,,0.00,weatherlink.com 1.10,2013-07-10 04:41:00,
2013-07-10 00:56:00,64.6,62.0,30.02,SW,232,4.0,-999.0,92,-99.99,,,0.00,weatherlink.com 1.10,2013-07-10 04:56:00,
2013-07-10 01:11:00,64.6,63.0,30.02,WSW,238,6.0,-999.0,93,-99.99,,,0.00,weatherlink.com 1.10,2013-07-10 05:11:00,
2013-07-10 01:26:00,64.5,63.0,30.01,SW,235,5.0,-999.0,93,-99.99,,,0.00,weatherlink.com 1.10,2013-07-10 05:26:00,
2013-07-10 01:41:00,64.4,62.0,30.00,WSW,237,6.0,-999.0,93,-99.99,,,0.00,weatherlink.com 1.10,2013-07-10 05:41:00,
2013-07-10 01:56:00,64.4,62.0,30.00,WSW,245,9.0,-999.0,93,-99.99,,,0.00,weatherlink.com 1.10,2013-07-10 05:56:00,
2013-07-10 02:11:00,64.4,62.0,29.98,WSW,243,7.0,-999.0,93,-99.99,,,0.00,weatherlink.com 1.10,2013-07-10 06:11:00,
2013-07-10 02:27:00,64.2,62.0,29.98,SW,236,8.0,-999.0,92,-99.99,,,0.00,weatherlink.com 1.10,2013-07-10 06:27:00,
2013-07-10 02:42:00,64.1,62.0,29.98,West,263,7.0,-999.0,92,-99.99,,,0.00,weatherlink.com 1.10,2013-07-10 06:42:00,
2013-07-10 02:57:00,64.1,62.0,29.97,SW,236,11.0,-999.0,92,-99.99,,,0.00,weatherlink.com 1.10,2013-07-10 06:57:00,
2013-07-10 03:12:00,64.0,61.0,29.97,SW,230,12.0,-999.0,91,-99.99,,,0.00,weatherlink.com 1.10,2013-07-10 07:12:00,
2013-07-10 03:27:00,63.3,60.0,29.96,SW,231,11.0,-999.0,90,-99.99,,,0.00,weatherlink.com 1.10,2013-07-10 07:27:00,
2013-07-10 03:42:00,62.6,60.0,29.97,WSW,238,9.0,-999.0,91,-99.99,,,0.01,weatherlink.com 1.10,2013-07-10 07:42:00,
2013-07-10 03:57:00,62.5,61.0,29.96,SW,225,7.0,-999.0,93,-99.99,,,0.01,weatherlink.com 1.10,2013-07-10 07:57:00,
2013-07-10 04:12:00,62.5,61.0,29.96,SW,229,7.0,-999.0,93,-99.99,,,0.01,weatherlink.com 1.10,2013-07-10 08:12:00,
2013-07-10 04:27:00,62.6,61.0,29.95,SW,226,7.0,-999.0,93,-99.99,,,0.01,weatherlink.com 1.10,2013-07-10 08:27:00,
2013-07-10 04:42:00,62.9,61.0,29.95,SW,219,9.0,-999.0,92,-99.99,,,0.01,weatherlink.com 1.10,2013-07-10 08:42:00,
2013-07-10 04:57:00,62.8,60.0,29.95,SW,229,6.0,-999.0,91,-99.99,,,0.01,weatherlink.com 1.10,2013-07-10 08:57:00,
2013-07-10 05:12:00,62.3,60.0,29.95,WSW,240,11.0,-999.0,92,-99.99,,,0.01,weatherlink.com 1.10,2013-07-10 09:12:00,
2013-07-10 05:27:00,62.4,60.0,29.95,WSW,255,10.0,-999.0,93,-99.99,,,0.01,weatherlink.com 1.10,2013-07-10 09:27:00,
2013-07-10 05:42:00,62.6,61.0,29.95,SW,227,9.0,-999.0,93,-99.99,,,0.01,weatherlink.com 1.10,2013-07-10 09:42:00,
2013-07-10 05:57:00,62.6,61.0,29.95,WSW,239,9.0,-999.0,93,-99.99,,,0.01,weatherlink.com 1.10,2013-07-10 09:57:00,
2013-07-10 06:12:00,62.3,60.0,29.96,WSW,242,11.0,-999.0,93,-99.99,,,0.01,weatherlink.com 1.10,2013-07-10 10:12:00,
2013-07-10 06:27:00,62.2,60.0,29.96,SW,234,8.0,-999.0,93,-99.99,,,0.01,weatherlink.com 1.10,2013-07-10 10:27:00,
2013-07-10 06:42:00,62.2,60.0,29.96,SW,231,11.0,-999.0,93,-99.99,,,0.01,weatherlink.com 1.10,2013-07-10 10:42:00,
2013-07-10 06:57:00,62.7,60.0,29.96,SW,221,12.0,-999.0,92,-99.99,,,0.01,weatherlink.com 1.10,2013-07-10 10:57:00,
2013-07-10 07:12:00,63.1,61.0,29.96,SW,229,10.0,-999.0,91,-99.99,,,0.01,weatherlink.com 1.10,2013-07-10 11:12:00,
2013-07-10 07:27:00,63.2,60.0,29.96,SSW,211,12.0,-999.0,90,-99.99,,,0.01,weatherlink.com 1.10,2013-07-10 11:27:00,
2013-07-10 07:42:00,63.4,61.0,29.96,SW,220,9.0,-999.0,90,-99.99,,,0.01,weatherlink.com 1.10,2013-07-10 11:42:00,
2013-07-10 07:57:00,63.7,61.0,29.96,SW,229,12.0,-999.0,90,-99.99,,,0.01,weatherlink.com 1.10,2013-07-10 11:57:00,
2013-07-10 08:12:00,64.0,61.0,29.95,SW,230,10.0,-999.0,89,-99.99,,,0.01,weatherlink.com 1.10,2013-07-10 12:12:00,
2013-07-10 08:27:00,64.5,61.0,29.95,SW,223,15.0,-999.0,89,-99.99,,,0.01,weatherlink.com 1.10,2013-07-10 12:27:00,
2013-07-10 08:42:00,64.2,62.0,29.96,SW,222,11.0,-999.0,91,-99.99,,,0.01,weatherlink.com 1.10,2013-07-10 12:42:00,
2013-07-10 08:57:00,64.0,62.0,29.96,WSW,250,19.0,-999.0,93,-99.99,,,0.01,weatherlink.com 1.10,2013-07-10 12:57:00,
2013-07-10 09:12:00,64.1,62.0,29.96,WSW,244,13.0,-999.0,93,-99.99,,,0.01,weatherlink.com 1.10,2013-07-10 13:12:00,
2013-07-10 09:27:00,64.6,63.0,29.96,SW,236,12.0,-999.0,93,-99.99,,,0.01,weatherlink.com 1.10,2013-07-10 13:27:00,
2013-07-10 09:42:00,64.1,62.0,29.96,WSW,237,12.0,-999.0,92,-99.99,,,0.01,weatherlink.com 1.10,2013-07-10 13:42:00,
2013-07-10 09:57:00,63.4,60.0,29.96,SW,227,9.0,-999.0,88,-99.99,,,0.01,weatherlink.com 1.10,2013-07-10 13:57:00,
2013-07-10 10:12:00,63.3,59.0,29.96,WSW,240,8.0,-999.0,87,-99.99,,,0.01,weatherlink.com 1.10,2013-07-10 14:12:00,
2013-07-10 10:27:00,64.2,61.0,29.96,SW,221,8.0,-999.0,88,-99.99,,,0.01,weatherlink.com 1.10,2013-07-10 14:27:00,
2013-07-10 10:42:00,64.4,61.0,29.96,SW,231,7.0,-999.0,88,-99.99,,,0.01,weatherlink.com 1.10,2013-07-10 14:42:00,
2013-07-10 10:57:00,64.5,62.0,29.96,SSW,209,9.0,-999.0,90,-99.99,,,0.01,weatherlink.com 1.10,2013-07-10 14:57:00,
2013-07-10 11:12:00,65.0,63.0,29.97,SW,232,7.0,-999.0,92,-99.99,,,0.01,weatherlink.com 1.10,2013-07-10 15:12:00,
2013-07-10 11:27:00,64.6,60.0,29.97,West,263,7.0,-999.0,85,-99.99,,,0.02,weatherlink.com 1.10,2013-07-10 15:27:00,
2013-07-10 11:42:00,64.3,60.0,29.98,SW,235,9.0,-999.0,86,-99.99,,,0.02,weatherlink.com 1.10,2013-07-10 15:42:00,
2013-07-10 11:57:00,63.8,60.0,29.97,WSW,238,6.0,-999.0,87,-99.99,,,0.03,weatherlink.com 1.10,2013-07-10 15:57:00,
2013-07-10 12:12:00,64.3,61.0,29.96,WSW,245,4.0,-999.0,90,-99.99,,,0.03,weatherlink.com 1.10,2013-07-10 16:12:00,
2013-07-10 12:27:00,64.3,62.0,29.96,WSW,245,4.0,-999.0,92,-99.99,,,0.03,weatherlink.com 1.10,2013-07-10 16:27:00,
2013-07-10 12:42:00,64.3,61.0,29.95,WSW,244,5.0,-999.0,89,-99.99,,,0.03,weatherlink.com 1.10,2013-07-10 16:42:00,
2013-07-10 12:57:00,64.2,60.0,29.95,SW,226,6.0,-999.0,85,-99.99,,,0.04,weatherlink.com 1.10,2013-07-10 16:57:00,
2013-07-10 13:12:00,64.4,58.0,29.95,SW,236,4.0,-999.0,80,-99.99,,,0.05,weatherlink.com 1.10,2013-07-10 17:12:00,
2013-07-10 13:27:00,65.2,58.0,29.95,SW,223,6.0,-999.0,77,-99.99,,,0.05,weatherlink.com 1.10,2013-07-10 17:27:00,
2013-07-10 13:42:00,66.8,62.0,29.94,SW,232,6.0,-999.0,85,-99.99,,,0.05,weatherlink.com 1.10,2013-07-10 17:42:00,
2013-07-10 13:57:00,67.4,65.0,29.94,SW,221,7.0,-999.0,93,-99.99,,,0.05,weatherlink.com 1.10,2013-07-10 17:57:00,
2013-07-10 14:13:00,71.0,66.0,29.93,SW,217,6.0,-999.0,83,-99.99,,,0.05,weatherlink.com 1.10,2013-07-10 18:13:00,
2013-07-10 14:28:00,73.6,67.0,29.92,WSW,243,7.0,-999.0,80,-99.99,,,0.05,weatherlink.com 1.10,2013-07-10 18:28:00,
2013-07-10 14:43:00,72.7,67.0,29.92,SSW,210,9.0,-999.0,82,-99.99,,,0.05,weatherlink.com 1.10,2013-07-10 18:43:00,
2013-07-10 14:58:00,71.7,66.0,29.92,SW,223,7.0,-999.0,82,-99.99,,,0.05,weatherlink.com 1.10,2013-07-10 18:58:00,
2013-07-10 15:13:00,70.8,66.0,29.91,SW,228,4.0,-999.0,84,-99.99,,,0.05,weatherlink.com 1.10,2013-07-10 19:13:00,
2013-07-10 15:28:00,71.4,66.0,29.90,SSW,211,9.0,-999.0,83,-99.99,,,0.05,weatherlink.com 1.10,2013-07-10 19:28:00,
2013-07-10 15:43:00,74.9,66.0,29.88,SW,231,9.0,-999.0,74,-99.99,,,0.05,weatherlink.com 1.10,2013-07-10 19:43:00,
2013-07-10 15:58:00,75.3,68.0,29.87,SW,223,8.0,-999.0,77,-99.99,,,0.05,weatherlink.com 1.10,2013-07-10 19:58:00,
2013-07-10 16:13:00,74.1,68.0,29.88,SSW,205,10.0,-999.0,80,-99.99,,,0.05,weatherlink.com 1.10,2013-07-10 20:13:00,
2013-07-10 16:28:00,69.3,66.0,29.89,SSE,167,4.0,-999.0,89,-99.99,,,0.05,weatherlink.com 1.10,2013-07-10 20:28:00,
2013-07-10 16:43:00,67.6,65.0,29.87,SSW,207,5.0,-999.0,90,-99.99,,,0.05,weatherlink.com 1.10,2013-07-10 20:43:00,
2013-07-10 16:58:00,68.1,65.0,29.85,SSW,203,9.0,-999.0,89,-99.99,,,0.05,weatherlink.com 1.10,2013-07-10 20:58:00,
2013-07-10 17:13:00,68.9,64.0,29.86,SW,215,9.0,-999.0,85,-99.99,,,0.05,weatherlink.com 1.10,2013-07-10 21:13:00,
2013-07-10 17:28:00,68.8,65.0,29.86,WSW,249,7.0,-999.0,86,-99.99,,,0.05,weatherlink.com 1.10,2013-07-10 21:28:00,
2013-07-10 17:43:00,67.7,64.0,29.87,SSW,212,9.0,-999.0,89,-99.99,,,0.05,weatherlink.com 1.10,2013-07-10 21:43:00,
2013-07-10 17:58:00,68.1,64.0,29.87,WSW,248,5.0,-999.0,87,-99.99,,,0.05,weatherlink.com 1.10,2013-07-10 21:58:00,
2013-07-10 18:13:00,66.9,64.0,29.87,SW,215,7.0,-999.0,89,-99.99,,,0.05,weatherlink.com 1.10,2013-07-10 22:13:00,
2013-07-10 18:28:00,65.9,63.0,29.87,SSW,203,10.0,-999.0,90,-99.99,,,0.05,weatherlink.com 1.10,2013-07-10 22:28:00,
2013-07-10 18:43:00,65.4,63.0,29.87,SSW,212,9.0,-999.0,91,-99.99,,,0.05,weatherlink.com 1.10,2013-07-10 22:43:00,
2013-07-10 18:58:00,65.1,63.0,29.87,SW,230,8.0,-999.0,91,-99.99,,,0.05,weatherlink.com 1.10,2013-07-10 22:58:00,
2013-07-10 19:13:00,65.0,63.0,29.88,SW,221,6.0,-999.0,92,-99.99,,,0.05,weatherlink.com 1.10,2013-07-10 23:13:00,
2013-07-10 19:28:00,64.6,62.0,29.87,SW,217,6.0,-999.0,91,-99.99,,,0.05,weatherlink.com 1.10,2013-07-10 23:28:00,
2013-07-10 19:43:00,64.8,62.0,29.88,WSW,240,8.0,-999.0,90,-99.99,,,0.05,weatherlink.com 1.10,2013-07-10 23:43:00,
2013-07-10 19:58:00,64.5,62.0,29.88,SW,217,8.0,-999.0,90,-99.99,,,0.05,weatherlink.com 1.10,2013-07-10 23:58:00,
2013-07-10 20:13:00,64.0,61.0,29.88,SW,222,6.0,-999.0,91,-99.99,,,0.05,weatherlink.com 1.10,2013-07-11 00:13:00,
2013-07-10 20:28:00,63.7,61.0,29.88,WSW,243,9.0,-999.0,92,-99.99,,,0.05,weatherlink.com 1.10,2013-07-11 00:28:00,
2013-07-10 20:43:00,63.5,61.0,29.88,SW,230,6.0,-999.0,92,-99.99,,,0.05,weatherlink.com 1.10,2013-07-11 00:43:00,
2013-07-10 20:58:00,63.4,61.0,29.88,WSW,238,5.0,-999.0,92,-99.99,,,0.05,weatherlink.com 1.10,2013-07-11 00:58:00,
2013-07-10 21:13:00,63.5,61.0,29.88,WSW,242,7.0,-999.0,92,-99.99,,,0.05,weatherlink.com 1.10,2013-07-11 01:13:00,
2013-07-10 21:28:00,63.5,62.0,29.88,SW,236,7.0,-999.0,93,-99.99,,,0.05,weatherlink.com 1.10,2013-07-11 01:28:00,
2013-07-10 21:43:00,63.5,62.0,29.89,SW,232,7.0,-999.0,93,-99.99,,,0.05,weatherlink.com 1.10,2013-07-11 01:43:00,
2013-07-10 21:58:00,61.4,59.0,29.90,NW,309,8.0,-999.0,93,-99.99,,,0.05,weatherlink.com 1.10,2013-07-11 01:58:00,
2013-07-10 22:13:00,59.5,56.0,29.90,WNW,298,7.0,-999.0,88,-99.99,,,0.05,weatherlink.com 1.10,2013-07-11 02:13:00,
2013-07-10 22:28:00,59.0,54.0,29.90,NNE,31,5.0,-999.0,84,-99.99,,,0.05,weatherlink.com 1.10,2013-07-11 02:28:00,
2013-07-10 22:43:00,58.7,54.0,29.90,NNW,342,3.0,-999.0,85,-99.99,,,0.05,weatherlink.com 1.10,2013-07-11 02:43:00,
2013-07-10 22:58:00,59.4,55.0,29.89,North,360,1.0,-999.0,85,-99.99,,,0.05,weatherlink.com 1.10,2013-07-11 02:58:00,
2013-07-10 23:13:00,59.5,56.0,29.88,West,267,1.0,-999.0,88,-99.99,,,0.05,weatherlink.com 1.10,2013-07-11 03:13:00,
2013-07-10 23:28:00,60.8,59.0,29.87,NW,311,4.0,-999.0,92,-99.99,,,0.05,weatherlink.com 1.10,2013-07-11 03:28:00,
2013-07-10 23:44:00,61.7,59.0,29.87,NW,311,4.0,-999.0,92,-99.99,,,0.05,weatherlink.com 1.10,2013-07-11 03:44:00,
2013-07-10 23:58:00,62.1,60.0,29.86,WNW,296,1.0,-999.0,91,-99.99,,,0.05,weatherlink.com 1.10,2013-07-11 03:58:00,